| DS18B20 | SHTC3 | ||||||
|---|---|---|---|---|---|---|---|
| ID | Date d/m/Y & Time | data1 สูง | data2 ต่ำ | data3 นอก | temp pcb | hum pcb | Time |
| 3963 | 19/03/2026 15:48:32 | 31.1  | 30.8  | 30.7  | 31.0  | 69.5  | 15:48 |
| 3962 | 19/03/2026 15:43:50 | 31.2  | 30.8  | 30.8  | 31.0  | 69.7  | 15:43 |
| 3961 | 19/03/2026 15:39:08 | 31.2  | 30.8  | 30.5  | 30.9  | 69.5  | 15:39 |
| 3960 | 19/03/2026 15:34:26 | 31.2  | 30.8  | 30.8  | 31.0  | 69.6  | 15:34 |
| 3959 | 19/03/2026 15:29:43 | 31.3  | 30.8  | 31.0  | 30.8  | 69.5  | 15:29 |
| 3958 | 19/03/2026 15:25:02 | 31.4  | 30.8  | 30.7  | 31.1  | 69.5  | 15:25 |
| 3957 | 19/03/2026 15:20:20 | 31.4  | 30.8  | 30.8  | 31.0  | 69.1  | 15:20 |
| 3956 | 19/03/2026 15:15:38 | 31.5  | 30.8  | 30.5  | 31.0  | 69.2  | 15:15 |
| 3955 | 19/03/2026 15:10:56 | 31.5  | 30.8  | 30.7  | 31.0  | 69.2  | 15:10 |
| 3954 | 19/03/2026 15:06:14 | 31.6  | 30.8  | 30.7  | 31.1  | 69.1  | 15:06 |
| 3953 | 19/03/2026 15:01:33 | 31.6  | 30.8  | 31.0  | 31.1  | 68.9  | 15:01 |
| 3952 | 19/03/2026 14:56:50 | 31.6  | 30.8  | 30.8  | 31.1  | 68.9  | 14:56 |
| 3951 | 19/03/2026 14:52:09 | 31.6  | 30.8  | 31.1  | 31.2  | 68.9  | 14:52 |
| 3950 | 19/03/2026 14:47:27 | 31.7  | 30.8  | 31.0  | 31.1  | 68.9  | 14:47 |
| 3949 | 19/03/2026 14:42:45 | 31.6  | 30.8  | 31.5  | 31.1  | 69.0  | 14:42 |
| 3948 | 19/03/2026 14:38:02 | 31.6  | 30.8  | 31.7  | 30.9  | 68.8  | 14:38 |
| 3947 | 19/03/2026 14:33:21 | 31.6  | 30.8  | 31.4  | 31.1  | 68.5  | 14:33 |
| 3946 | 19/03/2026 14:28:40 | 31.6  | 30.8  | 31.4  | 31.1  | 68.5  | 14:28 |
| 3945 | 19/03/2026 14:23:56 | 31.6  | 30.8  | 31.2  | 31.2  | 68.7  | 14:23 |
| 3944 | 19/03/2026 14:19:12 | 31.6  | 30.8  | 31.4  | 31.0  | 68.5  | 14:19 |
| 3943 | 19/03/2026 14:14:30 | 31.6  | 30.7  | 31.1  | 31.1  | 68.6  | 14:14 |
| 3942 | 19/03/2026 14:09:48 | 31.6  | 30.7  | 31.3  | 31.1  | 68.5  | 14:09 |
| 3941 | 19/03/2026 14:05:06 | 31.7  | 30.7  | 31.2  | 31.0  | 68.6  | 14:05 |
| 3940 | 19/03/2026 14:00:23 | 31.7  | 30.7  | 31.4  | 31.2  | 68.5  | 14:00 |